• In Deutschland
  • Länderverzeichnis
  • Für 7 Tage
  • Wassertemperatur
  • Satellitenkarten
  • Wetterkarte
  • Widgets
  • user-avatar
    Anmelden

    Stündliche Wetter Loudi

    Heute, 24 November, Freitag

    Zeit Temperatur Niederschläge Wind Luftdruck Luftfeuchtigkeit
    00:00 +10°C° 0 mm 1 m/S 759 mmHg 46%
    01:00 +10°C° 0 mm 1 m/S 759 mmHg 47%
    02:00 +9°C° 0 mm 1 m/S 759 mmHg 47%
    03:00 +9°C° 0 mm 1 m/S 759 mmHg 47%
    04:00 +9°C° 0 mm 1 m/S 759 mmHg 48%
    05:00 +9°C° 0 mm 1 m/S 759 mmHg 48%
    06:00 +9°C° 0 mm 1 m/S 759 mmHg 49%
    07:00 +9°C° 0 mm 0 m/S 759 mmHg 49%
    08:00 +11°C° 0 mm 1 m/S 759 mmHg 43%
    09:00 +13°C° 0 mm 1 m/S 759 mmHg 38%
    10:00 +15°C° 0 mm 1 m/S 760 mmHg 32%
    11:00 +15°C° 0 mm 1 m/S 759 mmHg 31%
    12:00 +16°C° 0 mm 2 m/S 758 mmHg 30%
    13:00 +16°C° 0 mm 2 m/S 758 mmHg 28%
    14:00 +16°C° 0 mm 1 m/S 758 mmHg 32%
    15:00 +15°C° 0 mm 1 m/S 757 mmHg 36%
    16:00 +15°C° 0 mm 1 m/S 757 mmHg 40%
    17:00 +14°C° 0 mm 1 m/S 757 mmHg 41%
    18:00 +13°C° 0 mm 1 m/S 757 mmHg 42%
    19:00 +12°C° 0 mm 0 m/S 757 mmHg 43%
    20:00 +12°C° 0 mm 0 m/S 758 mmHg 44%
    21:00 +12°C° 0 mm 0 m/S 758 mmHg 44%
    22:00 +11°C° 0 mm 0 m/S 758 mmHg 45%
    23:00 +11°C° 0 mm 0 m/S 758 mmHg 45%

    Morgen, 25 November, Samstag

    Zeit Temperatur Niederschläge Wind Luftdruck Luftfeuchtigkeit
    00:00 +11°C° 0 mm 0 m/S 758 mmHg 46%
    01:00 +11°C° 0 mm 0 m/S 758 mmHg 47%
    02:00 +11°C° 0 mm 0 m/S 757 mmHg 48%
    03:00 +11°C° 0 mm 0 m/S 757 mmHg 48%
    04:00 +11°C° 0 mm 0 m/S 757 mmHg 48%
    05:00 +11°C° 0 mm 0 m/S 757 mmHg 49%
    06:00 +11°C° 0 mm 0 m/S 758 mmHg 50%
    07:00 +11°C° 0 mm 0 m/S 758 mmHg 51%
    08:00 +12°C° 0 mm 0 m/S 758 mmHg 49%
    09:00 +12°C° 0 mm 0 m/S 758 mmHg 47%
    10:00 +13°C° 0 mm 0 m/S 758 mmHg 45%
    11:00 +14°C° 0 mm 0 m/S 758 mmHg 42%
    12:00 +15°C° 0 mm 0 m/S 757 mmHg 38%
    13:00 +18°C° 0 mm 1 m/S 757 mmHg 35%
    14:00 +18°C° 0 mm 1 m/S 756 mmHg 38%
    15:00 +16°C° 0 mm 1 m/S 756 mmHg 41%
    16:00 +16°C° 0 mm 1 m/S 756 mmHg 43%
    17:00 +15°C° 0 mm 1 m/S 756 mmHg 47%
    18:00 +13°C° 0 mm 1 m/S 757 mmHg 51%
    19:00 +11°C° 0 mm 0 m/S 757 mmHg 54%
    20:00 +11°C° 0 mm 0 m/S 758 mmHg 55%
    21:00 +11°C° 0 mm 0 m/S 758 mmHg 56%
    22:00 +10°C° 0 mm 0 m/S 758 mmHg 57%
    23:00 +10°C° 0 mm 0 m/S 758 mmHg 58%

    übermorgen, 26 November, Sonntag

    Zeit Temperatur Niederschläge Wind Luftdruck Luftfeuchtigkeit
    00:00 +10°C° 0 mm 0 m/S 758 mmHg 58%
    01:00 +10°C° 0 mm 0 m/S 758 mmHg 58%
    02:00 +9°C° 0 mm 0 m/S 758 mmHg 59%
    03:00 +9°C° 0 mm 0 m/S 757 mmHg 59%
    04:00 +9°C° 0 mm 0 m/S 757 mmHg 59%
    05:00 +9°C° 0 mm 0 m/S 758 mmHg 59%
    06:00 +10°C° 0 mm 0 m/S 758 mmHg 59%
    07:00 +10°C° 0 mm 0 m/S 758 mmHg 59%
    08:00 +13°C° 0 mm 1 m/S 759 mmHg 51%
    09:00 +15°C° 0 mm 1 m/S 759 mmHg 43%
    10:00 +18°C° 0 mm 1 m/S 759 mmHg 36%
    11:00 +18°C° 0 mm 2 m/S 758 mmHg 33%
    12:00 +19°C° 0 mm 2 m/S 757 mmHg 31%
    13:00 +20°C° 0 mm 2 m/S 756 mmHg 29%
    14:00 +19°C° 0 mm 2 m/S 756 mmHg 32%
    15:00 +18°C° 0 mm 2 m/S 755 mmHg 36%
    16:00 +18°C° 0 mm 2 m/S 755 mmHg 39%
    17:00 +16°C° 0 mm 1 m/S 755 mmHg 42%
    18:00 +15°C° 0 mm 1 m/S 756 mmHg 45%
    19:00 +14°C° 0 mm 1 m/S 756 mmHg 48%
    20:00 +13°C° 0 mm 1 m/S 756 mmHg 48%
    21:00 +13°C° 0 mm 1 m/S 756 mmHg 49%
    22:00 +13°C° 0 mm 1 m/S 756 mmHg 50%
    23:00 +13°C° 0 mm 1 m/S 755 mmHg 50%

    27 November, Montag

    Zeit Temperatur Niederschläge Wind Luftdruck Luftfeuchtigkeit
    00:00 +12°C° 0 mm 1 m/S 755 mmHg 51%
    01:00 +12°C° 0 mm 1 m/S 754 mmHg 52%
    02:00 +11°C° 0 mm 0 m/S 754 mmHg 53%
    03:00 +11°C° 0 mm 0 m/S 754 mmHg 54%
    04:00 +10°C° 0 mm 0 m/S 753 mmHg 55%
    05:00 +11°C° 0 mm 0 m/S 754 mmHg 56%
    06:00 +11°C° 0 mm 0 m/S 754 mmHg 56%
    07:00 +11°C° 0 mm 0 m/S 754 mmHg 57%
    08:00 +13°C° 0 mm 0 m/S 754 mmHg 52%
    09:00 +15°C° 0 mm 0 m/S 754 mmHg 47%
    10:00 +20°C° 0 mm 1 m/S 754 mmHg 42%
    11:00 +20°C° 0 mm 1 m/S 753 mmHg 42%
    12:00 +21°C° 0 mm 1 m/S 752 mmHg 41%
    13:00 +21°C° 0 mm 2 m/S 751 mmHg 40%
    14:00 +22°C° 0 mm 1 m/S 751 mmHg 43%
    15:00 +21°C° 0 mm 1 m/S 750 mmHg 47%
    16:00 +21°C° 0 mm 1 m/S 750 mmHg 50%
    17:00 +20°C° 0 mm 1 m/S 750 mmHg 54%
    18:00 +19°C° 0 mm 1 m/S 751 mmHg 58%
    19:00 +16°C° 0 mm 0 m/S 751 mmHg 61%
    20:00 +16°C° 0 mm 0 m/S 751 mmHg 62%
    21:00 +16°C° 0 mm 0 m/S 751 mmHg 62%
    22:00 +16°C° 0 mm 0 m/S 752 mmHg 63%
    23:00 +16°C° 0,1 mm 0 m/S 751 mmHg 65%

    28 November, Dienstag

    Zeit Temperatur Niederschläge Wind Luftdruck Luftfeuchtigkeit
    00:00 +16°C° 0,1 mm 0 m/S 751 mmHg 67%
    01:00 +15°C° 0,1 mm 0 m/S 751 mmHg 70%
    02:00 +15°C° 0 mm 0 m/S 751 mmHg 72%
    03:00 +15°C° 0 mm 1 m/S 751 mmHg 74%
    04:00 +15°C° 0 mm 1 m/S 751 mmHg 76%
    05:00 +15°C° 0 mm 1 m/S 751 mmHg 76%
    06:00 +15°C° 0 mm 1 m/S 752 mmHg 76%
    07:00 +14°C° 0 mm 0 m/S 752 mmHg 76%
    08:00 +18°C° 0 mm 1 m/S 753 mmHg 70%
    09:00 +20°C° 0 mm 1 m/S 753 mmHg 63%
    10:00 +22°C° 0 mm 1 m/S 753 mmHg 57%
    11:00 +21°C° 0 mm 2 m/S 753 mmHg 56%
    12:00 +23°C° 0 mm 2 m/S 752 mmHg 55%
    13:00 +24°C° 0 mm 2 m/S 752 mmHg 54%
    14:00 +22°C° 0 mm 3 m/S 752 mmHg 57%
    15:00 +21°C° 0 mm 3 m/S 751 mmHg 60%
    16:00 +20°C° 0 mm 4 m/S 751 mmHg 64%
    17:00 +19°C° 0 mm 3 m/S 752 mmHg 67%
    18:00 +17°C° 0 mm 3 m/S 752 mmHg 70%
    19:00 +16°C° 0 mm 3 m/S 753 mmHg 73%
    20:00 +16°C° 0 mm 3 m/S 753 mmHg 75%
    21:00 +15°C° 0 mm 2 m/S 753 mmHg 76%
    22:00 +15°C° 0 mm 2 m/S 753 mmHg 78%
    23:00 +15°C° 0 mm 2 m/S 753 mmHg 79%

    29 November, Mittwoch

    Zeit Temperatur Niederschläge Wind Luftdruck Luftfeuchtigkeit
    00:00 +15°C° 0 mm 2 m/S 753 mmHg 81%
    01:00 +15°C° 0 mm 2 m/S 753 mmHg 82%
    02:00 +14°C° 0 mm 2 m/S 753 mmHg 83%
    03:00 +14°C° 0 mm 1 m/S 753 mmHg 84%
    04:00 +14°C° 0 mm 1 m/S 752 mmHg 85%
    05:00 +14°C° 0 mm 1 m/S 753 mmHg 85%
    06:00 +14°C° 0 mm 1 m/S 753 mmHg 85%
    07:00 +14°C° 0 mm 1 m/S 753 mmHg 86%
    08:00 +16°C° 0 mm 2 m/S 753 mmHg 81%
    09:00 +17°C° 0 mm 2 m/S 753 mmHg 76%
    10:00 +18°C° 0 mm 2 m/S 753 mmHg 72%
    11:00 +18°C° 0,2 mm 2 m/S 753 mmHg 73%
    12:00 +18°C° 0,2 mm 2 m/S 752 mmHg 73%
    13:00 +19°C° 0,2 mm 3 m/S 751 mmHg 74%
    14:00 +18°C° 0,2 mm 3 m/S 751 mmHg 77%
    15:00 +17°C° 0,2 mm 3 m/S 752 mmHg 79%
    16:00 +16°C° 0,2 mm 3 m/S 752 mmHg 82%
    17:00 +14°C° 0,1 mm 3 m/S 752 mmHg 83%
    18:00 +14°C° 0,1 mm 3 m/S 753 mmHg 85%
    19:00 +13°C° 0,1 mm 3 m/S 753 mmHg 86%
    20:00 +13°C° 0,1 mm 3 m/S 754 mmHg 86%
    21:00 +12°C° 0,1 mm 3 m/S 754 mmHg 86%
    22:00 +12°C° 0,1 mm 4 m/S 754 mmHg 85%
    23:00 +12°C° 0,2 mm 4 m/S 754 mmHg 85%
    Mehr zeigen